• In Russia
  • List of Countries
  • For 7 days
  • Water Temperature
  • Satellite Maps
  • Weather Map
  • Weather Widgets
  • user-avatar
    Login

    Hourly Weather Armagh

    Today, 23 October, Monday

    Time Temperature Precipitation Wind Pressure Humidity
    00:00 +9°C° 0.5 mm 5 mps 753 mmHg 95%
    01:00 +10°C° 0.4 mm 5 mps 752 mmHg 95%
    02:00 +10°C° 0.4 mm 5 mps 751 mmHg 96%
    03:00 +12°C° 0.4 mm 5 mps 751 mmHg 96%
    04:00 +12°C° 0.1 mm 4 mps 751 mmHg 96%
    05:00 +13°C° 0.1 mm 4 mps 751 mmHg 96%
    06:00 +13°C° 0.1 mm 4 mps 751 mmHg 96%
    07:00 +13°C° 0 mm 4 mps 751 mmHg 95%
    08:00 +13°C° 0 mm 4 mps 751 mmHg 95%
    09:00 +13°C° 0 mm 4 mps 752 mmHg 94%
    10:00 +13°C° 0 mm 4 mps 752 mmHg 91%
    11:00 +14°C° 0 mm 4 mps 752 mmHg 89%
    12:00 +14°C° 0 mm 4 mps 752 mmHg 86%
    13:00 +14°C° 0.3 mm 4 mps 753 mmHg 88%
    14:00 +13°C° 0.3 mm 4 mps 753 mmHg 90%
    15:00 +13°C° 0.3 mm 4 mps 753 mmHg 91%
    16:00 +12°C° 0.1 mm 4 mps 753 mmHg 93%
    17:00 +11°C° 0.1 mm 3 mps 753 mmHg 94%
    18:00 +10°C° 0.1 mm 3 mps 753 mmHg 95%
    19:00 +10°C° 0 mm 3 mps 753 mmHg 96%
    20:00 +10°C° 0 mm 3 mps 753 mmHg 96%
    21:00 +10°C° 0 mm 3 mps 753 mmHg 97%
    22:00 +10°C° 0 mm 3 mps 753 mmHg 97%
    23:00 +10°C° 0 mm 3 mps 753 mmHg 97%

    Tomorrow, 24 October, Tuesday

    Time Temperature Precipitation Wind Pressure Humidity
    00:00 +10°C° 0 mm 3 mps 753 mmHg 97%
    01:00 +11°C° 0.2 mm 4 mps 752 mmHg 97%
    02:00 +12°C° 0.2 mm 4 mps 751 mmHg 96%
    03:00 +13°C° 0.2 mm 4 mps 751 mmHg 96%
    04:00 +13°C° 1.4 mm 5 mps 750 mmHg 96%
    05:00 +14°C° 1.4 mm 5 mps 750 mmHg 96%
    06:00 +14°C° 1.4 mm 5 mps 749 mmHg 96%
    07:00 +14°C° 0.7 mm 5 mps 750 mmHg 95%
    08:00 +14°C° 0.7 mm 5 mps 750 mmHg 94%
    09:00 +14°C° 0.7 mm 5 mps 750 mmHg 92%
    10:00 +14°C° 0 mm 5 mps 751 mmHg 90%
    11:00 +14°C° 0 mm 5 mps 751 mmHg 87%
    12:00 +14°C° 0 mm 5 mps 752 mmHg 84%
    13:00 +14°C° 0.6 mm 4 mps 751 mmHg 87%
    14:00 +13°C° 0.6 mm 4 mps 751 mmHg 90%
    15:00 +13°C° 0.6 mm 4 mps 751 mmHg 93%
    16:00 +12°C° 0.9 mm 4 mps 751 mmHg 93%
    17:00 +12°C° 0.9 mm 4 mps 751 mmHg 94%
    18:00 +12°C° 0.9 mm 4 mps 751 mmHg 94%
    19:00 +11°C° 0.1 mm 4 mps 751 mmHg 94%
    20:00 +11°C° 0.1 mm 4 mps 751 mmHg 94%
    21:00 +11°C° 0.1 mm 4 mps 751 mmHg 94%
    22:00 +10°C° 0 mm 5 mps 752 mmHg 94%
    23:00 +10°C° 0 mm 5 mps 752 mmHg 94%

    Day after tomorrow, 25 October, Wednesday

    Time Temperature Precipitation Wind Pressure Humidity
    00:00 +9°C° 0 mm 5 mps 752 mmHg 94%
    01:00 +10°C° 0 mm 5 mps 753 mmHg 93%
    02:00 +10°C° 0 mm 5 mps 753 mmHg 92%
    03:00 +10°C° 0 mm 5 mps 753 mmHg 92%
    04:00 +10°C° 0 mm 5 mps 754 mmHg 92%
    05:00 +9°C° 0 mm 5 mps 754 mmHg 92%
    06:00 +9°C° 0 mm 5 mps 754 mmHg 93%
    07:00 +9°C° 0 mm 5 mps 755 mmHg 92%
    08:00 +9°C° 0 mm 5 mps 755 mmHg 91%
    09:00 +9°C° 0 mm 5 mps 756 mmHg 90%
    10:00 +10°C° 0 mm 5 mps 756 mmHg 86%
    11:00 +12°C° 0 mm 5 mps 756 mmHg 83%
    12:00 +13°C° 0 mm 6 mps 757 mmHg 79%
    13:00 +13°C° 0 mm 5 mps 757 mmHg 79%
    14:00 +12°C° 0 mm 5 mps 757 mmHg 79%
    15:00 +12°C° 0 mm 4 mps 757 mmHg 80%
    16:00 +12°C° 0 mm 4 mps 757 mmHg 82%
    17:00 +11°C° 0 mm 4 mps 757 mmHg 84%
    18:00 +10°C° 0 mm 4 mps 757 mmHg 87%
    19:00 +10°C° 0 mm 4 mps 757 mmHg 87%
    20:00 +10°C° 0 mm 4 mps 758 mmHg 88%
    21:00 +10°C° 0 mm 4 mps 758 mmHg 89%
    22:00 +10°C° 0 mm 4 mps 759 mmHg 90%
    23:00 +8°C° 0 mm 4 mps 759 mmHg 92%

    26 October, Thursday

    Time Temperature Precipitation Wind Pressure Humidity
    00:00 +9°C° 0 mm 3 mps 759 mmHg 93%
    01:00 +9°C° 0 mm 3 mps 759 mmHg 94%
    02:00 +9°C° 0 mm 3 mps 759 mmHg 95%
    03:00 +9°C° 0 mm 3 mps 760 mmHg 96%
    04:00 +8°C° 0 mm 3 mps 760 mmHg 96%
    05:00 +8°C° 0 mm 2 mps 760 mmHg 97%
    06:00 +8°C° 0 mm 2 mps 760 mmHg 97%
    07:00 +9°C° 0 mm 2 mps 761 mmHg 96%
    08:00 +9°C° 0 mm 2 mps 761 mmHg 95%
    09:00 +9°C° 0 mm 2 mps 762 mmHg 93%
    10:00 +10°C° 0 mm 2 mps 762 mmHg 90%
    11:00 +12°C° 0 mm 2 mps 762 mmHg 86%
    12:00 +13°C° 0 mm 2 mps 762 mmHg 82%
    13:00 +13°C° 0 mm 2 mps 762 mmHg 82%
    14:00 +13°C° 0 mm 2 mps 762 mmHg 81%
    15:00 +14°C° 0 mm 2 mps 762 mmHg 80%
    16:00 +13°C° 0 mm 2 mps 762 mmHg 85%
    17:00 +12°C° 0 mm 2 mps 763 mmHg 89%
    18:00 +9°C° 0 mm 2 mps 763 mmHg 93%
    19:00 +9°C° 0 mm 2 mps 763 mmHg 94%
    20:00 +8°C° 0 mm 2 mps 764 mmHg 95%
    21:00 +8°C° 0 mm 2 mps 764 mmHg 96%
    22:00 +8°C° 0 mm 2 mps 764 mmHg 96%
    23:00 +7°C° 0 mm 2 mps 765 mmHg 96%

    27 October, Friday

    Time Temperature Precipitation Wind Pressure Humidity
    00:00 +7°C° 0 mm 2 mps 765 mmHg 97%
    01:00 +7°C° 0 mm 2 mps 765 mmHg 97%
    02:00 +7°C° 0 mm 2 mps 765 mmHg 97%
    03:00 +7°C° 0 mm 2 mps 765 mmHg 97%
    04:00 +7°C° 0 mm 2 mps 766 mmHg 97%
    05:00 +6°C° 0 mm 2 mps 766 mmHg 97%
    06:00 +6°C° 0 mm 2 mps 766 mmHg 97%
    07:00 +7°C° 0 mm 2 mps 767 mmHg 96%
    08:00 +7°C° 0 mm 2 mps 767 mmHg 96%
    09:00 +8°C° 0 mm 2 mps 767 mmHg 95%
    10:00 +9°C° 0 mm 3 mps 768 mmHg 91%
    11:00 +10°C° 0 mm 3 mps 768 mmHg 86%
    12:00 +11°C° 0 mm 4 mps 768 mmHg 82%
    13:00 +11°C° 0 mm 4 mps 768 mmHg 80%
    14:00 +11°C° 0 mm 4 mps 767 mmHg 79%
    15:00 +12°C° 0 mm 5 mps 767 mmHg 77%
    16:00 +9°C° 0 mm 5 mps 767 mmHg 81%
    17:00 +8°C° 0 mm 5 mps 767 mmHg 84%
    18:00 +7°C° 0 mm 5 mps 767 mmHg 88%
    19:00 +7°C° 0 mm 5 mps 767 mmHg 88%
    20:00 +7°C° 0 mm 5 mps 767 mmHg 89%
    21:00 +7°C° 0 mm 5 mps 767 mmHg 89%
    22:00 +7°C° 0 mm 5 mps 767 mmHg 89%
    23:00 +7°C° 0 mm 5 mps 767 mmHg 88%

    28 October, Saturday

    Time Temperature Precipitation Wind Pressure Humidity
    00:00 +8°C° 0 mm 6 mps 766 mmHg 87%
    01:00 +8°C° 0 mm 6 mps 766 mmHg 88%
    02:00 +8°C° 0 mm 6 mps 766 mmHg 88%
    03:00 +8°C° 0 mm 6 mps 766 mmHg 88%
    04:00 +8°C° 0 mm 5 mps 766 mmHg 89%
    05:00 +8°C° 0 mm 5 mps 766 mmHg 89%
    06:00 +8°C° 0 mm 5 mps 765 mmHg 90%
    07:00 +8°C° 0 mm 5 mps 766 mmHg 89%
    08:00 +8°C° 0 mm 4 mps 766 mmHg 88%
    09:00 +10°C° 0 mm 4 mps 766 mmHg 88%
    10:00 +11°C° 0 mm 4 mps 766 mmHg 83%
    11:00 +12°C° 0 mm 5 mps 766 mmHg 78%
    12:00 +13°C° 0 mm 5 mps 766 mmHg 74%
    13:00 +13°C° 0 mm 5 mps 766 mmHg 73%
    14:00 +13°C° 0 mm 4 mps 766 mmHg 73%
    15:00 +13°C° 0 mm 4 mps 765 mmHg 73%
    16:00 +11°C° 0 mm 4 mps 765 mmHg 78%
    17:00 +10°C° 0 mm 4 mps 765 mmHg 83%
    18:00 +8°C° 0 mm 3 mps 765 mmHg 89%
    19:00 +8°C° 0 mm 3 mps 765 mmHg 89%
    20:00 +8°C° 0 mm 3 mps 765 mmHg 90%
    21:00 +8°C° 0 mm 3 mps 765 mmHg 90%
    22:00 +8°C° 0 mm 3 mps 765 mmHg 91%
    23:00 +8°C° 0 mm 3 mps 765 mmHg 93%

    29 October, Sunday

    Time Temperature Precipitation Wind Pressure Humidity
    00:00 +9°C° 0 mm 3 mps 765 mmHg 94%
    01:00 +10°C° 0 mm 4 mps 764 mmHg 95%
    02:00 +10°C° 0 mm 4 mps 764 mmHg 95%
    03:00 +11°C° 0 mm 4 mps 763 mmHg 96%
    04:00 +12°C° 0.1 mm 4 mps 763 mmHg 96%
    05:00 +12°C° 0.1 mm 5 mps 763 mmHg 95%
    06:00 +13°C° 0.1 mm 5 mps 763 mmHg 95%
    07:00 +13°C° 0.1 mm 5 mps 763 mmHg 94%
    08:00 +13°C° 0.1 mm 5 mps 763 mmHg 93%
    09:00 +14°C° 0.1 mm 6 mps 763 mmHg 93%
    10:00 +14°C° 0.1 mm 5 mps 763 mmHg 92%
    11:00 +13°C° 0.1 mm 5 mps 764 mmHg 92%
    12:00 +13°C° 0.1 mm 5 mps 764 mmHg 92%
    13:00 +13°C° 0 mm 5 mps 764 mmHg 91%
    14:00 +13°C° 0 mm 5 mps 764 mmHg 90%
    15:00 +13°C° 0 mm 5 mps 764 mmHg 89%
    16:00 +12°C° 0 mm 5 mps 764 mmHg 90%
    17:00 +10°C° 0 mm 5 mps 765 mmHg 90%
    18:00 +10°C° 0 mm 4 mps 765 mmHg 90%
    19:00 +10°C° 0 mm 4 mps 765 mmHg 90%
    20:00 +8°C° 0 mm 4 mps 766 mmHg 90%
    21:00 +8°C° 0 mm 4 mps 766 mmHg 91%
    22:00 +8°C° 0 mm 4 mps 766 mmHg 89%
    23:00 +8°C° 0 mm 4 mps 767 mmHg 88%
    Show more